Flag for U.S.A. Weather past 2 weeks in Pasadena, Texas, U.S.A.

Now
90 °F

Partly sunny.


Feels Like: 100 °F
Forecast: 77 / 91 °F
Wind: 8 mph from East

Location: Houston / Ellington

Current Time: Jul 30, 2014 at 1:22:11 PM

Latest Report: Jul 30, 2014 at 12:50 PM


Visibility: 10 mi

Pressure: 30.04 "Hg

Humidity: 63%

Dew point: 75 °F

Location of PasadenaLocation

Historic Weather in Pasadena — Graph

°F

Pasadena temperature yesterday

Maximum temperature yesterday: 95 °F (at 1:50 PM)
Minimum temperature yesterday: 75 °F (at 3:50 PM)
Average temperature yesterday: 82 °F

Past Weeks' High & Low Weather Summary

 TemperatureHumidityPressure
High97 °F (Jul 16, 11:50 AM)100% (Jul 23, 8:50 AM)30.14 "Hg (Jul 23, 8:50 AM)
Low73 °F (Jul 19, 3:50 AM)39% (Jul 28, 4:50 PM)29.86 "Hg (Jul 17, 5:50 PM)
Average83 °F78%30.01 "Hg
* Reported Jul 15 11:50 AM — Jul 30 11:50 AM, Pasadena, Weather by CustomWeather, © 2014

Note: Actual official high and low records may vary slightly from our data, if they occured in-between our weather recording intervals... More about our weather records

Advertising

Pasadena weather history for previous 24 hours

 ConditionsComfort  
Time TempWeatherWind HumidityBarometerVisibility
11:50 AM
Jul 30
90 °FPartly sunny.7 mph63%30.06 "Hg10 mi
10:50 AM88 °FPartly sunny.6 mph62%30.07 "Hg10 mi
9:50 AM84 °FBroken clouds.5 mph84%30.06 "Hg10 mi
8:50 AM79 °FBroken clouds.No wind94%30.06 "Hg10 mi
7:50 AM79 °FBroken clouds.No wind94%30.06 "Hg10 mi
6:50 AM75 °FPartly cloudy.No wind94%30.06 "Hg10 mi
4:50 AM75 °FPassing clouds.No wind94%30.05 "Hg10 mi
2:50 AM75 °FPassing clouds.No wind94%30.05 "Hg10 mi
1:50 AM77 °FPassing clouds.No wind89%30.06 "Hg10 mi
12:50 AM77 °FPassing clouds.No wind89%30.05 "Hg10 mi
11:50 PM
Jul 29
77 °FPassing clouds.No wind94%30.04 "Hg10 mi
10:50 PM77 °FPassing clouds.No wind94%30.04 "Hg10 mi
9:50 PM77 °FPartly cloudy.No wind94%30.03 "Hg10 mi
8:50 PM77 °FBroken clouds.No wind94%30.02 "Hg10 mi
7:50 PM79 °FBroken clouds.2 mph94%30.04 "Hg10 mi
6:50 PM79 °FBroken clouds.2 mph94%30.04 "Hg10 mi
5:50 PM79 °FPartly sunny.No wind100%30.04 "Hg10 mi
4:50 PM77 °FPartly sunny.6 mph89%30.04 "Hg10 mi
3:50 PM75 °FMostly cloudy.3 mph94%30.08 "Hg7 mi
2:50 PM86 °FThunderstorms. Partly sunny.12 mph70%30.06 "Hg3 mi
1:50 PM95 °FPartly sunny.No wind39%30.06 "Hg10 mi
Weather by CustomWeather, © 2014

See weather overviewHow to use our weather pages